Regional Weather Roundup
Issued by NWS

Home | Current Version | Previous Version | Graphics & Text | Print | Product List | Glossary On
Versions: 1 2 3 4 5 6 7 8 9 10 11 12 13 14 15 16 17 18 19 20 21 22 23 24 25 26 27 28 29 30 31 32 33 34 35 36 37 38 39 40 41 42 43 44 45 46 47 48 49 50
000
ASUS45 KSLC 311510
RWRUT

UTAH REGIONAL WEATHER ROUNDUP
NATIONAL WEATHER SERVICE SALT LAKE CITY UT
900 AM MDT MON AUG 31 2015

UTZ001>011-023>025-311600-

NORTHERN UTAH

CITY           SKY/WX    TMP DP  RH WIND       PRES   REMARKS
BRIGHAM CITY   SUNNY     61  32  33 N5        30.10R
HILL AFB       MOSUNNY   68  44  40 NE5       30.11R
LOGAN          SUNNY     55  40  56 CALM      30.14R
OGDEN          MOSUNNY   67  42  40 N5        30.10R
PROVO AIRPORT  MOSUNNY   64  48  55 CALM      30.12R
SALT LAKE CITY MOSUNNY   68  44  42 S5        30.09R
VERNAL         MOSUNNY   66  50  56 CALM      30.18R
WENDOVER       SUNNY     70  28  21 SE7       30.12R
HEBER CITY     SUNNY     59  46  63 CALM      30.19S
WEST JORDAN    SUNNY     68  37  32 SW5       30.12R

$$

UTZ012>022-026-027-311600-

SOUTHERN/CENTRAL UTAH

CITY           SKY/WX    TMP DP  RH WIND       PRES   REMARKS
BLANDING       PTSUNNY   66  56  69 CALM      30.30R
BRYCE CANYON   MOSUNNY   57  51  80 NW3       30.33R
CEDAR CITY     MOSUNNY   70  50  49 S6        30.16R
DELTA          SUNNY     65  38  36 S7        30.11R
HANKSVILLE     MOSUNNY   70  57  64 N3        30.14R
MILFORD        MOSUNNY   67  47  48 SW5       30.13R
MOAB/CYNLANDS  PTSUNNY   66  59  78 SE6       30.13R
PRICE          SUNNY     65  53  65 S3        30.21R
ST GEORGE      MOSUNNY   79  55  44 E7        30.02S

$$

REGIONAL REPORTS     COLORADO/ARIZONA

CITY           SKY/WX    TMP DP  RH WIND       PRES   REMARKS
CRAIG, CO      PTSUNNY   63  51  65 NE12      30.24S
GRAND JUNCTION CLOUDY    63  59  87 CALM      30.19R
RIFLE          PTSUNNY   61  57  87 CALM      30.24R
MONTROSE       CLOUDY    61  55  81 E3        30.25R
CORTEZ         SUNNY     67  51  56 N6        30.23S
PAGE, AZ       PTSUNNY   71  59  65 CALM      30.14R
GRAND CANYON   MOSUNNY   59  55  87 VRB3      30.28R
KINGMAN        MOSUNNY   82  46  28 SE15      30.01R
FLAGSTAFF      PTSUNNY   59  56  89 CALM      30.32R

$$

REGIONAL REPORTS    NEVADA/IDAHO/WYOMING

CITY           SKY/WX    TMP DP  RH WIND       PRES   REMARKS
LAS VEGAS, NV  PTSUNNY   83  43  24 CALM      29.86R
ELY            SUNNY     55  28  35 S5        30.21R
ELKO           SUNNY     53  20  27 CALM      30.16R
POCATELLO, ID  SUNNY     61  35  37 SW10      30.15R
BURLEY         SUNNY     55  41  59 S3        30.13R
EVANSTON, WY   MOSUNNY   58  39  49 CALM      30.25R
ROCK SPRINGS   SUNNY     57  50  77 W5        30.24R
KEMMERER       PTSUNNY   46  30  53 N9        30.26S

$$



USA.gov is the U.S. government's official web portal to all federal, state and local government web resources and services.